Flag for Qatar Weather past 2 weeks in Al Khor, Qatar

Now
84 °F

Sunny.


Feels Like: 86 °F
Forecast: 82 / 97 °F
Wind: 2 mph from North

Location: Doha International Airport


UV Index: 7 (High)

Visibility: 10 mi


Pressure: 29.86 "Hg

Humidity: 51%

Dew point: 64 °F

Location of Al KhorLocation

Historic Weather in Al Khor

°F

Al Khor temperature yesterday

Maximum temperature yesterday: 102 °F (at 1:30 PM)
Minimum temperature yesterday: 79 °F (at 1:00 AM)
Average temperature yesterday: 87 °F

Past Weeks' High & Low Weather Summary

 TemperatureHumidityPressure
High102 °F (Apr 15, 1:30 PM)88% (Apr 8, 3:00 AM)30.12 "Hg (Apr 8, 3:00 AM)
Low68 °F (Apr 7, 3:00 AM)11% (Apr 5, 2:30 PM)29.59 "Hg (Apr 2, 6:30 PM)
Average80 °F44%29.92 "Hg
* Reported Apr 1 7:00 AM — Apr 16 7:00 AM, Al Khor, Weather by CustomWeather, © 2014

Note: Actual official high and low records may vary slightly from our data, if they occured in-between our weather recording intervals... More about our weather records

Advertising

Historic Weather Conditions — Data for Previous 24 hours

 ConditionsComfort  
Time TempWeatherWind HumidityBarometerVisibility
7:00 AM
Apr 16
84 °FSunny.2 mph51%29.86 "Hg10 mi
6:00 AM81 °FPassing clouds.3 mph58%29.86 "HgN/A
5:00 AM82 °FPassing clouds.7 mph55%29.83 "HgN/A
4:00 AM82 °FPassing clouds.3 mph48%29.83 "HgN/A
3:00 AM84 °FClear.2 mph43%29.83 "Hg10 mi
2:00 AM84 °FClear.1 mph45%29.83 "Hg10 mi
1:30 AM86 °FClear.6 mph35%29.83 "Hg10 mi
1:00 AM84 °FClear.1 mph45%29.83 "Hg10 mi
12:00 AM84 °FPassing clouds.3 mph43%29.86 "HgN/A
11:30 PM
Apr 15
84 °FPassing clouds.3 mph43%29.86 "HgN/A
11:00 PM84 °FClear.2 mph45%29.86 "Hg10 mi
10:30 PM84 °FPassing clouds.3 mph43%29.86 "HgN/A
10:00 PM84 °FClear.6 mph43%29.86 "Hg10 mi
9:30 PM84 °FPassing clouds.6 mph40%29.86 "HgN/A
9:00 PM84 °FPassing clouds.6 mph40%29.86 "HgN/A
8:30 PM84 °FPassing clouds.7 mph45%29.86 "HgN/A
8:00 PM84 °FClear.8 mph45%29.86 "Hg10 mi
7:00 PM84 °FClear.9 mph48%29.86 "Hg10 mi
6:00 PM86 °FPassing clouds.8 mph43%29.83 "HgN/A
5:00 PM88 °FSunny.10 mph35%29.83 "Hg10 mi
4:00 PM88 °FSunny.15 mph43%29.83 "Hg10 mi
3:00 PM100 °FSunny.10 mph13%29.83 "Hg10 mi
2:30 PM100 °FPassing clouds.9 mph14%29.83 "HgN/A
2:00 PM102 °FPassing clouds.12 mph11%29.83 "HgN/A
1:30 PM102 °FSunny.12 mph13%29.86 "Hg10 mi
10:00 AM95 °FPassing clouds.10 mph22%29.89 "HgN/A
9:00 AM91 °FPassing clouds.8 mph32%29.86 "HgN/A
8:30 AM90 °FPassing clouds.7 mph41%29.86 "HgN/A
8:00 AM86 °FPassing clouds.6 mph46%29.86 "HgN/A
Weather by CustomWeather, © 2014

See weather overview